Regional Weather Roundup
Issued by NWS

Home | Current Version | Previous Version | Text Only | Print | Product List | Glossary Off
Versions: 1 2 3 4 5 6 7 8 9 10 11 12 13 14 15 16 17 18 19 20 21 22 23 24 25 26 27 28 29 30 31 32 33 34 35 36 37 38 39 40 41 42 43 44 45 46 47 48 49 50

000
ASUS43 KOAX 120602
RWRNE

WEATHER ROUNDUP FOR NEBRASKA
NATIONAL WEATHER SERVICE OMAHA NE
100 AM CDT SAT JUL 12 2014

NOTES: SATELLITE DATA IS BEING USED TO AUGMENT CLOUD COVER ABOVE
       12000 FEET.
       "FAIR" INDICATES FEW OR NO CLOUDS BELOW 12,000 FEET WITH NO
       SIGNIFICANT WEATHER AND/OR OBSTRUCTIONS TO VISIBILITY.

  * THESE STATIONS DO NOT REPORT WEATHER SUCH AS RAIN...SNOW OR FOG.

NEZ001>004-019>022-054>056-120700-
NEBRASKA PANHANDLE

CITY           SKY/WX    TMP DP  RH WIND       PRES   REMARKS
SCOTTSBLUFF    CLOUDY    63  63 100 NE17G24   30.18S
6HR MIN TEMP:  63; 6HR MAX TEMP:  78; 6HR PCP:  0.90;

ALLIANCE       LGT RAIN  61  59  93 N7        30.18S
6HR MIN TEMP:  61; 6HR MAX TEMP:  75;

CHADRON        CLOUDY    64  61  90 W5        30.14S
6HR MIN TEMP:  64; 6HR MAX TEMP:  71; 6HR PCP:  0.03;

KIMBALL        CLOUDY    63  62  96 NE7       30.19F
SIDNEY         CLOUDY    66  64  93 N15G23    30.16F
6HR MIN TEMP:  66; 6HR MAX TEMP:  81; 6HR PCP:  0.04;

$$

NEZ057>060-069>072-079>082-120700-
SOUTHWEST NEBRASKA

CITY           SKY/WX    TMP DP  RH WIND       PRES   REMARKS
NORTH PLATTE   LGT RAIN  68  62  81 N3        30.03F
6HR MIN TEMP:  68; 6HR MAX TEMP:  87; 6HR PCP: TRACE;

IMPERIAL       LGT RAIN  71  64  78 W7        30.04F
6HR MIN TEMP:  71; 6HR MAX TEMP:  87; 6HR PCP:  0.05;

LEXINGTON      CLOUDY    77  63  63 SW6       30.02R
MCCOOK         CLOUDY    78  60  53 SW8       30.02F
6HR MIN TEMP:  78; 6HR MAX TEMP:  94;

OGALLALA       CLOUDY    67  66  95 NW6       30.07S
$$

NEZ005>010-023>029-035>040-094-120700-
NORTH CENTRAL NEBRASKA

CITY           SKY/WX    TMP DP  RH WIND       PRES   REMARKS
VALENTINE      CLOUDY    71  68  90 N9        30.09S
6HR MIN TEMP:  67; 6HR MAX TEMP:  84; 6HR PCP:  0.05;

AINSWORTH      CLOUDY    69  66  93 SE7       30.07F
BROKEN BOW     CLOUDY    75  73  93 E10       30.00F
6HR MIN TEMP:  75; 6HR MAX TEMP:  85;

O`NEILL        RAIN      71  66  87 NW7       30.06R
ORD            LGT RAIN  74  72  93 E9        30.00F
6HR MIN TEMP:  74; 6HR MAX TEMP:  81; 6HR PCP:  0.01;

THEDFORD       CLOUDY    68  67  96 E9        30.10F
$$

NEZ041-046>049-061>064-073>077-083>087-120700-
SOUTH CENTRAL NEBRASKA

CITY           SKY/WX    TMP DP  RH WIND       PRES   REMARKS
GRAND ISLAND   MOCLDY    75  67  76 S8        29.99R
6HR MIN TEMP:  73; 6HR MAX TEMP:  87;

AURORA         MOCLDY    76  68  74 S9        29.99S
HASTINGS       MOCLDY    77  62  59 S8        30.00R
6HR MIN TEMP:  77; 6HR MAX TEMP:  89;

HEBRON         PTCLDY    82  64  53 S10G20    30.00R
HOLDREGE       CLOUDY    78  61  54 S15       30.00F
KEARNEY *      MOCLDY    79  63  57 S16G22    29.99F
YORK           MOCLDY    75  68  78 S8        29.99R
$$

NEZ011>018-030>034-042>045-120700-
NORTHEAST NEBRASKA

CITY           SKY/WX    TMP DP  RH WIND       PRES   REMARKS
NORFOLK        MOCLDY    73  70  90 E8        30.01F
6HR MIN TEMP:  73; 6HR MAX TEMP:  78; 6HR PCP: TRACE;

ALBION         MOCLDY    73  69  87 E6        30.02S
BLAIR          CLOUDY    75  72  88 NE5       29.98S
TEKAMAH        CLOUDY    75  72  90 N7        29.99S
6HR MIN TEMP:  74; 6HR MAX TEMP:  78;

WAYNE          CLOUDY    72  71  95 S9        30.04F
$$

NEZ050>053-065>068-078-088>093-120700-
SOUTHEAST NEBRASKA

CITY           SKY/WX    TMP DP  RH WIND       PRES   REMARKS
LINCOLN        CLEAR     77  69  76 S6        29.98R
6HR MIN TEMP:  76; 6HR MAX TEMP:  94;

OMAHA EPPLEY   CLOUDY    77  73  87 SE6       29.97F
6HR MIN TEMP:  77; 6HR MAX TEMP:  84;

BEATRICE       CLEAR     76  66  70 S10       30.00R
FALLS CITY     PTCLDY    79  70  74 S10       30.00F
6HR MIN TEMP:  78; 6HR MAX TEMP:  91;

NEBRASKA CITY  MOCLDY    79  69  71 SW13      29.98F
PLATTSMOUTH    PTCLDY    77  74  88 SE5       29.98S
$$

NEZ044-045-051>053-067-120700-
OMAHA AREA

CITY           SKY/WX    TMP DP  RH WIND       PRES   REMARKS
OMAHA EPPLEY   CLOUDY    77  73  87 SE6       29.97F
6HR MIN TEMP:  77; 6HR MAX TEMP:  84;

BLAIR          CLOUDY    75  72  88 NE5       29.98S
MILLARD        MOCLDY    78  74  88 CALM      29.97R
OFFUTT AFB     MOCLDY    76  76 100 E7        29.97S
PLATTSMOUTH    PTCLDY    77  74  88 SE5       29.98S
WAHOO          FAIR      74  71  90 CALM      29.98R
$$


USA.gov is the U.S. government's official web portal to all federal, state and local government web resources and services.